Pompano Beach, FL

12:49 AM EST on February 20, 2017 (GMT -0500)
Pompano Beach

Weather History for KPMP - November, 2013

Change the Weather History Date:

Saturday, November 23, 2013

  Actual Average Record
Temperature  
Mean Temperature 78 °F -  
Max Temperature 82 °F 80 °F 87 °F (1948)
Min Temperature 75 °F 62 °F 46 °F (1956)
Cooling Degree Days 14    
Growing Degree Days 28 (Base 50)    
Moisture  
Dew Point 69 °F    
Average Humidity 75    
Maximum Humidity 79    
Minimum Humidity 65    
Precipitation  
Precipitation 0.00 in - - ()
Sea Level Pressure  
Sea Level Pressure 30.04 in    
Wind  
Wind Speed 11 mph (ENE)    
Max Wind Speed 15 mph    
Max Gust Speed 20 mph    
Visibility 10 miles    
Events      
Averages and records for this station are not official NWS values.
T = Trace of Precipitation, MM = Missing Value Source: NWS Daily Summary

Daily Weather History Graph

Daily Weather History Graph

Search for Another Location

Airport or City:

Trip Planner

Search our weather history database for the weather conditions in past years. The results will help you decide how hot, cold, wet, or windy it might be!

Date:

Astronomy

Nov. 23, 2013 Rise Set
Actual Time 6:45 AM EST 5:28 PM EST
Civil Twilight 6:20 AM EST 5:53 PM EST
Nautical Twilight 5:52 AM EST 6:21 PM EST
Astronomical Twilight 5:24 AM EST 6:49 PM EST
Moon 10:42 PM EST (11/23) 11:11 AM EST (11/23)
Length of Visible Light 11h 32m
Length of Day
10h 43m
Waning Gibbous, 70% of the Moon is Illuminated
Nov 23
Waning Gibbous
Nov 25
Last Quarter
Dec 2
New
Dec 9
First Quarter
Dec 17
Full

Hourly Weather History & Observations

Time (EST) Temp. Heat Index Dew Point Humidity Pressure Visibility Wind Dir Wind Speed Gust Speed Precip Events Conditions
12:53 AM 77.0 °F - 70.0 °F 79% 30.06 in 10.0 mi ENE 11.5 mph - N/A   Overcast
1:31 AM 77.0 °F - 69.8 °F 78% 30.05 in 10.0 mi ENE 9.2 mph - N/A   Scattered Clouds
1:53 AM 77.0 °F - 69.1 °F 76% 30.05 in 10.0 mi ENE 9.2 mph - N/A   Scattered Clouds
2:03 AM 77.0 °F - 69.8 °F 78% 30.04 in 10.0 mi ENE 12.7 mph - N/A   Mostly Cloudy
2:42 AM 77.0 °F - 68.0 °F 74% 30.04 in 10.0 mi ENE 11.5 mph - N/A   Mostly Cloudy
2:53 AM 77.0 °F - 69.1 °F 76% 30.04 in 10.0 mi ENE 9.2 mph - N/A   Mostly Cloudy
3:53 AM 77.0 °F - 69.1 °F 76% 30.03 in 10.0 mi ENE 11.5 mph - N/A   Mostly Cloudy
4:53 AM 77.0 °F - 69.1 °F 76% 30.03 in 10.0 mi East 13.8 mph 19.6 mph 0.00 in   Overcast
5:53 AM 77.0 °F - 68.0 °F 74% 30.03 in 10.0 mi ENE 12.7 mph - N/A   Partly Cloudy
6:40 AM 77.0 °F - 69.8 °F 78% 30.04 in 10.0 mi East 11.5 mph - N/A   Mostly Cloudy
6:53 AM 77.0 °F - 70.0 °F 79% 30.04 in 10.0 mi East 11.5 mph - N/A   Scattered Clouds
7:23 AM 77.0 °F - 69.8 °F 78% 30.05 in 10.0 mi East 12.7 mph 19.6 mph N/A   Mostly Cloudy
7:31 AM 77.0 °F - 69.8 °F 78% 30.05 in 10.0 mi East 11.5 mph 19.6 mph N/A   Scattered Clouds
7:53 AM 78.1 °F - 70.0 °F 76% 30.06 in 10.0 mi ENE 11.5 mph 19.6 mph N/A   Scattered Clouds
8:53 AM 79.0 °F - 69.1 °F 72% 30.09 in 10.0 mi ENE 15.0 mph 19.6 mph N/A   Scattered Clouds
9:53 AM 81.0 °F 84.4 °F 70.0 °F 69% 30.09 in 10.0 mi ENE 12.7 mph - N/A   Scattered Clouds
10:53 AM 80.1 °F 83.2 °F 70.0 °F 71% 30.08 in 10.0 mi ENE 12.7 mph - N/A   Scattered Clouds
11:53 AM 81.0 °F 84.1 °F 69.1 °F 67% 30.06 in 10.0 mi ENE 13.8 mph - N/A   Mostly Cloudy
12:53 PM 82.0 °F 85.5 °F 69.1 °F 65% 30.03 in 10.0 mi ENE 12.7 mph - N/A   Scattered Clouds
1:53 PM 81.0 °F 84.1 °F 69.1 °F 67% 30.01 in 10.0 mi ENE 12.7 mph - N/A   Scattered Clouds
2:53 PM 81.0 °F 84.1 °F 69.1 °F 67% 30.00 in 10.0 mi East 9.2 mph - N/A   Partly Cloudy
3:53 PM 80.1 °F 82.9 °F 69.1 °F 69% 29.99 in 10.0 mi ENE 10.4 mph - N/A   Partly Cloudy
4:53 PM 79.0 °F - 69.1 °F 72% 30.00 in 10.0 mi ENE 9.2 mph - N/A   Clear
5:53 PM 77.0 °F - 69.1 °F 76% 30.01 in 10.0 mi East 4.6 mph - N/A   Scattered Clouds
6:53 PM 77.0 °F - 70.0 °F 79% 30.02 in 10.0 mi East 4.6 mph - N/A   Mostly Cloudy
7:53 PM 77.0 °F - 70.0 °F 79% 30.03 in 10.0 mi NE 5.8 mph - N/A   Partly Cloudy
8:53 PM 77.0 °F - 69.1 °F 76% 30.04 in 10.0 mi NE 4.6 mph - N/A   Overcast
9:53 PM 77.0 °F - 69.1 °F 76% 30.04 in 10.0 mi NE 4.6 mph - N/A   Partly Cloudy
10:53 PM 75.9 °F - 69.1 °F 79% 30.04 in 10.0 mi NNE 4.6 mph - N/A   Clear
11:53 PM 75.0 °F - 68.0 °F 79% 30.03 in 10.0 mi North 4.6 mph - N/A   Clear